Location: Montreal
(45.5087°N, 73.5540°W)
Time: 22:58:05
(UTC-04:00)

X-37B - Pass Details

Date: 03 October 2021
Orbit: 385 x 389 km, 45.0° (Epoch: 13 October)

Event Time Altitude Azimuth Distance (km) Brightness Sun altitude
Exits shadow 06:06:39 12° 245° (WSW) 1,290 2.6 -9.3°
Maximum altitude 06:08:10 16° 213° (SSW) 1,110 2.6 -9.1°
Drops below altitude 10° 06:10:12 10° 173° (S) 1,407 3.5 -8.7°
Sets 06:12:48 0° 150° (SSE) 2,258 4.9 -8.3°
